Location: Newark
(34.9471°N, 136.1778°E)
Time: 04:35:59
(UTC+00:00)

LilacSat-2 - Pass Details

Date: 21 February 2020
Orbit: 514 x 534 km, 97.5° (Epoch: 04 April)

Event Time Altitude Azimuth Distance (km) Brightness Sun altitude
Rises 20:41:34 0° 11° (NNE) 2,646 ? -11.6°
Reaches altitude 10° 20:43:40 10° 12° (NNE) 1,758 ? -11.1°
Maximum altitude 20:47:27 89° 96° (E) 527 ? -10.4°
Drops below altitude 10° 20:51:15 10° 192° (SSW) 1,756 ? -9.6°
Sets 20:53:21 0° 193° (SSW) 2,644 ? -9.2°
